DECAYED

OBJECT D, 57583 (Decayed)

Orbit data source: Space-Track

You're viewing an Uncataloged Satellite

Recently launched and/or uncataloged satellites may have evolving metadata. Metadata may include but not limited to: Owner, Maufacturer, Bus, Motor, and Mission.

OBJECT D, 57583 was a Chinese satellite in LEO that was launched on Thu, 10 Aug 2023 UTC via a GUSHENXING 1 launch vehicle from the Jiuquan Satellite Launch Center, China (JSC). Unknown objects in Earth's orbit typically refer to objects detected orbiting the Earth but have not yet been identified or cataloged. These objects could be anything from previously untracked satellites, spent rocket stages, debris from satellite collisions, or even natural meteoroids temporarily captured by Earth's gravity. This object's orbit decayed before it could be identified.

Not visible in the next 10 days
Identifier
57583, 2023-117D
Orbit
Decayed
Country
Flag of CNCN / PRC
Related business
None
Manufacturer
Unknown
Mission
Decayed Commercial Imaging
Bus & Motor
Unknown
Mass
Unknown
Launch date (UTC)
2023-08-10 (3 years ago)
Launch vehicle
GUSHENXING 1
Launch site
Jiuquan Satellite Launch Center, China (JSC)
Object type
Unknown
Shape & HBR
Box, 0.8 m
Radar Cross Section
2.000 m², Medium (>0.1 m² and < 1m²)

Expand to show TLE details & history
Last TLE update: 1 year ago

TLE from 1 year ago
0 OBJECT D
1 57583U 23117D   25149.38362663  .12925487  25615-5  56685-3 0  9995
2 57583  97.4043 238.0700 0015339 262.2876  97.6682 16.41794328100713
Epoch: 2025-05-29T09:12Z
TLE epoch observation values (Epoch: 2025-05-29T09:12:25.340Z)
Latitude
-0.00011°
Longitude
-147.18907°
Altitude
165.641 km
Speed
7.806 km/s
True Right ascension
15h 52m 16s
True Declination
0° 00' 00"
Sunlit
Object was in full shadow at epoch
Visualization orbit readout
Latitude
Unknown
Longitude
Unknown
Altitude
Unknown
Speed
Unknown
Apparent Right ascension
Unknown
Apparent Declination
Unknown
Sunlit
N/A
Visualization observer readout
Local Sidereal Time
21:25:33
Azimuth
Unknown
Elevation
Unknown
Doppler factor
Unknown
Orbital elements
Apogee altitude
167.865 km
Perigee altitude
147.814 km
Semi-major axis
6,535.976 km
Eccentricity
0.00153
Inclination
97.4043°
RAAN
238.07°
Arg. of periapsis
262.2876°
True anomaly
97.84236°
Mean anomaly
97.6682°
Eccentric anomaly
97.75528°
Mean motion
4.1075 °/min
Orbital period
87.64 mins
BSTAR
0.00056685
Loading maneuver chart data...
Computing Atmospheric mass density...
Loading historical data...
Loading historical data...
Loading historical data...
Loading historical data...
Loading historical data...
Loading historical data...
Loading historical data...

Documentation

Showing up to 5 results
|